Regional Weather Roundup
Issued by NWS

Home | Current Version | Previous Version | Text Only | Print | Product List | Glossary Off
Versions: 1 2 3 4 5 6 7 8 9 10 11 12 13 14 15 16 17 18 19 20 21 22 23 24 25 26 27 28 29 30 31 32 33 34 35 36 37 38 39 40 41 42 43 44 45 46 47 48 49 50

000
ASUS43 KIND 200609
RWRIN

WEATHER ROUNDUP FOR INDIANA
NATIONAL WEATHER SERVICE INDIANAPOLIS IN
200 AM EDT FRI APR 20 2018

NOTE: "FAIR" INDICATES FEW OR NO CLOUDS BELOW 12,000 FEET WITH NO
SIGNIFICANT WEATHER AND/OR OBSTRUCTIONS TO VISIBILITY.

* - STATION DOES NOT REPORT WEATHER SUCH AS PRECIPITATION OR FOG.

+ - STATION NOT QUALITY CONTROLLED BY THE NATIONAL WEATHER SERVICE.
    USE DATA WITH CAUTION...ESPECIALLY DEWPOINT AND RELATIVE
    HUMIDITY OBSERVATIONS.

INZ001>003-010>013-019-020-200700-
NORTHWEST INDIANA

CITY           SKY/WX    TMP DP  RH WIND       PRES   REMARKS
GARY /AIRPORT/ FAIR      32  29  91 CALM      30.44F
KNOX *+        FAIR      32  21  64 CALM      30.43S
LA PORTE +     FAIR      34  26  74 N6        30.43F WCI  29
6HR MIN TEMP:  32; 6HR MAX TEMP:  41;

MICHIGAN CITY+ FAIR      32  28  86 CALM      30.44S
MONTICELLO +   FAIR      31  20  63 N6        30.42S WCI  26
6HR MIN TEMP:  28; 6HR MAX TEMP:  46;

RENSSELAER +   FAIR      32  21  64 N7        30.43S WCI  26
VALPARAISO     FAIR      40  26  57 CALM      30.43S
6HR MIN TEMP:  37; 6HR MAX TEMP:  44;


$$

LMZ046-743>745-200700-
SOUTHERN LAKE MICHIGAN

STATION/POSITION TIME  TEMP    WIND        PRES    WAVE
                       AIR SEA DIR/SP/G            HT
                 (UTC) (F)     (DEG/KT/KT) (MB)    (FT)
BURNS HARBOR     0540   41     280/  4/  5 1031.2S
MICHIGAN CITY    0540   39     290/  7/  8   N/A

$$

INZ004-005-014>016-021>024-200700-
NORTH CENTRAL INDIANA

CITY           SKY/WX    TMP DP  RH WIND       PRES   REMARKS
GOSHEN         FAIR      29  21  72 W13       30.42R WCI  19
6HR MIN TEMP:  28; 6HR MAX TEMP:  42;

LOGANSPORT +   FAIR      32  19  59 N7        30.43S WCI  26
PERU/GRISSOM   FAIR      33  19  55 NW7       30.41R WCI  27
6HR MIN TEMP:  33; 6HR MAX TEMP:  46;

ROCHESTER +    FAIR      34  25  69 NW6       30.43R WCI  29
SOUTH BEND     FAIR      28  23  81 NW7       30.43R WCI  21
6HR MIN TEMP:  27; 6HR MAX TEMP:  40;

WARSAW +       FAIR      32  23  69 NW7       30.41S WCI  26

$$

INZ006>009-017-018-025>027-200700-
NORTHEAST INDIANA

CITY           SKY/WX    TMP DP  RH WIND       PRES   REMARKS
ANGOLA *+      FAIR      34  23  64 NW6       30.39R WCI  29
AUBURN +       FAIR      32  25  74 NW5       30.40S WCI  27
FORT WAYNE     FAIR      33  24  69 N8        30.39S WCI  26
6HR MIN TEMP:  33; 6HR MAX TEMP:  47;

HUNTINGTON +   FAIR      35  20  54 NW3       30.39R
6HR MIN TEMP:  35; 6HR MAX TEMP:  45;

KENDALLVILLE + FAIR      34  17  51 NW5       30.40R WCI  30

$$

INZ028-029-035-036-043>045-051>053-200700-
WEST CENTRAL INDIANA

CITY           SKY/WX    TMP DP  RH WIND       PRES   REMARKS
CRAWFORDSVL +  FAIR      33  18  54 N3        30.42R
6HR MIN TEMP:  33; 6HR MAX TEMP:  47;

GREENCASTLE +  FAIR      36  16  44 N7        30.41S WCI  30
LAFAYETTE      FAIR      31  23  72 N5        30.42S WCI  26
6HR MIN TEMP:  30; 6HR MAX TEMP:  48;

TERRE HAUTE    FAIR      34  21  59 NW3       30.43R
6HR MIN TEMP:  34; 6HR MAX TEMP:  53;


$$

INZ030>032-037>040-046>048-054>057-064-065-200700-
CENTRAL INDIANA

CITY           SKY/WX    TMP DP  RH WIND       PRES   REMARKS
FISHERS *+     FAIR      32  23  69 CALM      30.40
FRANKFORT +    FAIR      35  21  57 N7        30.43S WCI  29
6HR MIN TEMP:  35; 6HR MAX TEMP:  50;

GREENWOOD *+   FAIR      36  19  49 N8        30.40S WCI  30
INDIANAPOLIS   FAIR      36  16  44 N8        30.40R WCI  30
6HR MIN TEMP:  36; 6HR MAX TEMP:  51;

-EAGLE CREEK   FAIR      36  17  46 N7        30.39R WCI  30
6HR MIN TEMP:  36; 6HR MAX TEMP:  52;

KOKOMO +       FAIR      33  22  63 N7        30.42R WCI  27
6HR MIN TEMP:  33; 6HR MAX TEMP:  47;

MARION +       FAIR      33  23  65 CALM      30.41R
MT COMFORT *+  FAIR      32  25  74 N8        30.40R WCI  25
SHELBYVILLE    FAIR      36  22  56 N8        30.39R WCI  30
6HR MIN TEMP:  36; 6HR MAX TEMP:  53;

ZIONSVILLE +   FAIR      32  20  61 N6        30.41S WCI  26
6HR MIN TEMP:  32; 6HR MAX TEMP:  47;


$$

INZ033-034-041-042-049-050-058-059-200700-
EAST CENTRAL INDIANA

CITY           SKY/WX    TMP DP  RH WIND       PRES   REMARKS
MUNCIE         FAIR      35  23  61 NW3       30.39R
6HR MIN TEMP:  33; 6HR MAX TEMP:  51;

RICHMOND +     FAIR      34  28  80 N8        30.37R WCI  27

$$

INZ060-061-067>069-081>083-085>088-200700-
SOUTHWEST INDIANA

CITY           SKY/WX    TMP DP  RH WIND       PRES   REMARKS
EVANSVILLE     FAIR      44  29  55 N9        30.40R
6HR MIN TEMP:  44; 6HR MAX TEMP:  52;

HUNTINGBURG +  FAIR      41  26  55 N7        30.40R
6HR MIN TEMP:  41; 6HR MAX TEMP:  52;

WASHINGTON +   FAIR      39  21  48 N8        30.42R WCI  33
6HR MIN TEMP:  38; 6HR MAX TEMP:  52;


$$

INZ062-063-066-070>080-084-089>092-200700-
SOUTH CENTRAL AND SOUTHEAST INDIANA

CITY           SKY/WX    TMP DP  RH WIND       PRES   REMARKS
BATESVILLE +   CLEAR     36  27  69 MISG      30.37S
BEDFORD +      FAIR      41  18  38 N7        30.38R
BLOOMINGTON    FAIR      36  18  48 N5        30.40R WCI  32
6HR MIN TEMP:  36; 6HR MAX TEMP:  52;

FRENCH LICK *+ FAIR      41  12  30 N6        30.39R
MADISON *+     FAIR      39  23  52 N5        30.39R WCI  36
NORTH VERNON + FAIR      36  23  60 N14G21    30.39R WCI  27
SEYMOUR +      FAIR      41  21  45 N9        30.39R

$$





USA.gov is the U.S. government's official web portal to all federal, state and local government web resources and services.